| time (UTC) | temp F | wind direction | speed MPH | gust MPH | rain 1hr in | rain 24hr in | rain mn in | humidity % | barometer mb |
| 20260503203707 | 64 | 38 | 2.0 | 11.0 | 0.00 | 0.00 | 0.00 | 53 | 1014.0 |
| 20260503203206 | 64 | 274 | 3.0 | 11.0 | 0.00 | 0.00 | 0.00 | 53 | 1014.0 |
| 20260503202644 | 64 | 180 | 1.0 | 8.0 | 0.00 | 0.00 | 0.00 | 53 | 1014.1 |
| 20260503202137 | 63 | 26 | 1.0 | 7.0 | 0.00 | 0.00 | 0.00 | 56 | 1014.2 |
| 20260503201631 | 63 | 30 | 3.0 | 11.0 | 0.00 | 0.00 | 0.00 | 52 | 1014.2 |
| 20260503201346 | 63 | 130 | 4.0 | 11.0 | 0.00 | 0.00 | 0.00 | 51 | 1014.0 |
| 20260503200619 | 64 | 153 | 3.0 | 9.0 | 0.00 | 0.00 | 0.00 | 51 | 1014.0 |
| 20260503200110 | 64 | 207 | 3.0 | 8.0 | 0.00 | 0.00 | 0.00 | 52 | 1014.1 |
| 20260503195607 | 62 | 192 | 4.0 | 12.0 | 0.00 | 0.00 | 0.00 | 54 | 1014.1 |
| 20260503195102 | 63 | 215 | 4.0 | 12.0 | 0.00 | 0.00 | 0.00 | 53 | 1014.5 |
| 20260503194556 | 63 | 245 | 3.0 | 9.0 | 0.00 | 0.00 | 0.00 | 55 | 1014.5 |
| 20260503194050 | 62 | 158 | 4.0 | 9.0 | 0.00 | 0.00 | 0.00 | 54 | 1014.6 |
| 20260503193544 | 62 | 163 | 3.0 | 9.0 | 0.00 | 0.00 | 0.00 | 55 | 1014.6 |
| 20260503193523 | 62 | 173 | 3.0 | 9.0 | 0.00 | 0.00 | 0.00 | 56 | 1014.6 |
| 20260503192528 | 61 | 71 | 4.0 | 9.0 | 0.00 | 0.00 | 0.00 | 56 | 1014.6 |
| 20260503192510 | 62 | 71 | 3.0 | 9.0 | 0.00 | 0.00 | 0.00 | 54 | 1014.6 |
| 20260503191521 | 62 | 193 | 2.0 | 8.0 | 0.00 | 0.00 | 0.00 | 58 | 1014.7 |
| 20260503191014 | 61 | 180 | 2.0 | 11.0 | 0.00 | 0.00 | 0.00 | 59 | 1014.7 |
| 20260503190740 | 60 | 220 | 3.0 | 11.0 | 0.00 | 0.00 | 0.00 | 58 | 1014.6 |
| 20260503190226 | 59 | 185 | 2.0 | 6.0 | 0.00 | 0.00 | 0.00 | 61 | 1014.5 |
| 20260503185457 | 59 | 180 | 2.0 | 8.0 | 0.00 | 0.00 | 0.00 | 61 | 1014.6 |
| 20260503184945 | 60 | 159 | 1.0 | 8.0 | 0.00 | 0.00 | 0.00 | 61 | 1014.6 |
| 20260503184443 | 60 | 228 | 1.0 | 6.0 | 0.00 | 0.00 | 0.00 | 62 | 1014.6 |
| 20260503183937 | 60 | 146 | 2.0 | 8.0 | 0.00 | 0.00 | 0.00 | 59 | 1014.6 |
| 20260503183432 | 60 | 209 | 3.0 | 9.0 | 0.00 | 0.00 | 0.00 | 60 | 1014.8 |
| 20260503182925 | 60 | 225 | 4.0 | 9.0 | 0.00 | 0.00 | 0.00 | 62 | 1014.7 |
| 20260503182644 | 59 | 231 | 5.0 | 12.0 | 0.00 | 0.00 | 0.00 | 61 | 1014.7 |
| 20260503181914 | 59 | 194 | 4.0 | 12.0 | 0.00 | 0.00 | 0.00 | 63 | 1014.7 |
| 20260503181403 | 58 | 151 | 4.0 | 9.0 | 0.00 | 0.00 | 0.00 | 64 | 1014.6 |
| 20260503180857 | 58 | 221 | 3.0 | 8.0 | 0.00 | 0.00 | 0.00 | 64 | 1014.7 |
| 20260503180839 | 58 | 173 | 2.0 | 8.0 | 0.00 | 0.00 | 0.00 | 66 | 1014.7 |
| 20260503175850 | 57 | 209 | 3.0 | 7.0 | 0.00 | 0.00 | 0.00 | 68 | 1014.7 |
| 20260503175344 | 57 | 238 | 3.0 | 7.0 | 0.00 | 0.00 | 0.00 | 68 | 1014.6 |
| 20260503174840 | 56 | 221 | 2.0 | 6.0 | 0.00 | 0.00 | 0.00 | 70 | 1014.6 |
| 20260503174342 | 56 | 240 | 2.0 | 5.0 | 0.00 | 0.00 | 0.00 | 71 | 1014.7 |
| 20260503174057 | 56 | 224 | 2.0 | 7.0 | 0.00 | 0.00 | 0.00 | 73 | 1014.6 |
| 20260503173314 | 56 | 234 | 3.0 | 7.0 | 0.00 | 0.00 | 0.00 | 73 | 1014.6 |
| 20260503172814 | 56 | 186 | 3.0 | 9.0 | 0.00 | 0.00 | 0.00 | 73 | 1014.7 |
| 20260503172308 | 56 | 103 | 3.0 | 9.0 | 0.00 | 0.00 | 0.00 | 72 | 1014.7 |
| 20260503171801 | 56 | 203 | 3.0 | 9.0 | 0.00 | 0.00 | 0.00 | 74 | 1014.4 |
| 20260503171255 | 56 | 186 | 3.0 | 10.0 | 0.00 | 0.00 | 0.00 | 73 | 1014.4 |
| 20260503170749 | 55 | 186 | 3.0 | 10.0 | 0.00 | 0.00 | 0.00 | 75 | 1014.4 |
| 20260503170243 | 55 | 130 | 3.0 | 10.0 | 0.00 | 0.00 | 0.00 | 78 | 1014.4 |
| 20260503160132 | 53 | 140 | 3.0 | 8.0 | 0.00 | 0.00 | 0.00 | 82 | 1013.8 |
| 20260503150520 | 54 | 225 | 1.0 | 5.0 | 0.00 | 0.00 | 0.00 | 81 | 1013.4 |
| 20260503150510 | 53 | 164 | 1.0 | 5.0 | 0.00 | 0.00 | 0.00 | 81 | 1013.3 |
| 20260503131213 | 50 | 201 | 0.0 | 2.0 | 0.00 | 0.00 | 0.00 | 87 | 1012.3 |
| 20260503130702 | 50 | 200 | 0.0 | 2.0 | 0.00 | 0.00 | 0.00 | 87 | 1012.2 |
| 20260503130159 | 50 | 200 | 0.0 | 1.0 | 0.00 | 0.00 | 0.00 | 87 | 1012.2 |
| 20260503110726 | 48 | 166 | 0.0 | 0.0 | 0.00 | 0.00 | 0.00 | 85 | 1011.9 |
| 20260503110439 | 49 | 166 | 0.0 | 0.0 | 0.00 | 0.00 | 0.00 | 85 | 1011.9 |
| 20260503090502 | 52 | 220 | 0.0 | 3.0 | 0.00 | 0.00 | 0.00 | 81 | 1012.2 |
| 20260503081352 | 53 | 167 | 1.0 | 4.0 | 0.00 | 0.00 | 0.00 | 81 | 1012.7 |
| 20260503080853 | 53 | 159 | 1.0 | 4.0 | 0.00 | 0.00 | 0.00 | 81 | 1012.7 |
| 20260503080351 | 53 | 190 | 1.0 | 3.0 | 0.00 | 0.00 | 0.00 | 81 | 1012.7 |
| 20260503072248 | 53 | 228 | 0.0 | 4.0 | 0.00 | 0.00 | 0.00 | 82 | 1012.5 |
| 20260503071735 | 53 | 180 | 1.0 | 4.0 | 0.00 | 0.00 | 0.00 | 82 | 1012.5 |
| 20260503071224 | 53 | 247 | 1.0 | 6.0 | 0.00 | 0.00 | 0.00 | 82 | 1012.5 |
| 20260503070935 | 53 | 161 | 1.0 | 6.0 | 0.00 | 0.00 | 0.00 | 82 | 1012.5 |
| 20260503070427 | 53 | 245 | 1.0 | 5.0 | 0.00 | 0.00 | 0.00 | 82 | 1012.4 |
| 20260503060113 | 53 | 162 | 1.0 | 4.0 | 0.00 | 0.00 | 0.00 | 83 | 1012.2 |
| 20260503055012 | 53 | 212 | 1.0 | 5.0 | 0.00 | 0.00 | 0.00 | 84 | 1012.0 |
| 20260503054513 | 53 | 200 | 0.0 | 4.0 | 0.00 | 0.00 | 0.00 | 84 | 1012.1 |
| 20260503054006 | 53 | 157 | 0.0 | 2.0 | 0.00 | 0.00 | 0.00 | 84 | 1012.0 |
| 20260503053804 | 53 | 175 | 0.0 | 2.0 | 0.00 | 0.00 | 0.00 | 84 | 1012.0 |
| 20260503053650 | 53 | 162 | 0.0 | 4.0 | 0.00 | 0.00 | 0.00 | 85 | 1011.9 |
| 20260503053054 | 53 | 205 | 0.0 | 4.0 | 0.00 | 0.00 | 0.00 | 85 | 1012.0 |
| 20260503051955 | 53 | 159 | 0.0 | 2.0 | 0.00 | 0.00 | 0.00 | 85 | 1012.0 |
| 20260503051434 | 53 | 166 | 1.0 | 5.0 | 0.00 | 0.00 | 0.00 | 85 | 1011.8 |
| 20260503050930 | 53 | 123 | 2.0 | 5.0 | 0.00 | 0.00 | 0.00 | 85 | 1011.8 |
| 20260503050432 | 53 | 153 | 1.0 | 5.0 | 0.00 | 0.00 | 0.00 | 85 | 1011.8 |
| 20260503045929 | 53 | 180 | 0.0 | 2.0 | 0.00 | 0.00 | 0.00 | 86 | 1011.8 |
| 20260503045424 | 53 | 252 | 0.0 | 2.0 | 0.00 | 0.00 | 0.00 | 86 | 1011.7 |
| 20260503044918 | 53 | 250 | 2.0 | 9.0 | 0.00 | 0.00 | 0.00 | 86 | 1011.6 |
| 20260503044630 | 52 | 209 | 1.0 | 9.0 | 0.00 | 0.00 | 0.00 | 86 | 1011.4 |
| 20260503043906 | 52 | 197 | 0.0 | 4.0 | 0.00 | 0.00 | 0.00 | 86 | 1011.3 |
| 20260503043407 | 52 | 205 | 1.0 | 5.0 | 0.00 | 0.00 | 0.00 | 86 | 1011.3 |
| 20260503042849 | 52 | 205 | 2.0 | 6.0 | 0.00 | 0.00 | 0.00 | 86 | 1011.1 |
| 20260503042343 | 52 | 153 | 2.0 | 8.0 | 0.00 | 0.00 | 0.00 | 86 | 1011.1 |
| 20260503041841 | 52 | 231 | 1.0 | 8.0 | 0.00 | 0.00 | 0.00 | 86 | 1011.2 |
| 20260503041337 | 52 | 183 | 1.0 | 6.0 | 0.00 | 0.00 | 0.00 | 86 | 1011.2 |
| 20260503040830 | 52 | 205 | 1.0 | 4.0 | 0.00 | 0.00 | 0.00 | 86 | 1011.1 |
| 20260503040324 | 52 | 127 | 1.0 | 8.0 | 0.00 | 0.00 | 0.00 | 86 | 1011.1 |
| 20260503035818 | 53 | 211 | 3.0 | 9.0 | 0.00 | 0.00 | 0.00 | 86 | 1011.1 |
| 20260503035312 | 53 | 194 | 4.0 | 9.0 | 0.00 | 0.00 | 0.00 | 86 | 1011.0 |
| 20260503035022 | 53 | 207 | 4.0 | 9.0 | 0.00 | 0.00 | 0.00 | 85 | 1011.0 |
| 20260503034259 | 53 | 204 | 3.0 | 9.0 | 0.00 | 0.00 | 0.00 | 85 | 1011.1 |
| 20260503034240 | 53 | 217 | 3.0 | 8.0 | 0.00 | 0.00 | 0.00 | 85 | 1011.0 |
| 20260503033248 | 53 | 168 | 2.0 | 8.0 | 0.00 | 0.00 | 0.00 | 85 | 1011.0 |
| 20260503032742 | 53 | 240 | 2.0 | 6.0 | 0.00 | 0.00 | 0.00 | 84 | 1011.0 |
| 20260503032236 | 53 | 211 | 3.0 | 7.0 | 0.00 | 0.00 | 0.00 | 84 | 1011.0 |
| 20260503031730 | 53 | 226 | 2.0 | 7.0 | 0.00 | 0.00 | 0.00 | 84 | 1011.1 |
| 20260503031221 | 53 | 170 | 1.0 | 6.0 | 0.00 | 0.00 | 0.00 | 84 | 1011.1 |
| 20260503030718 | 53 | 163 | 1.0 | 6.0 | 0.00 | 0.00 | 0.00 | 83 | 1011.1 |
| 20260503030212 | 53 | 198 | 1.0 | 7.0 | 0.00 | 0.00 | 0.00 | 83 | 1011.0 |
| 20260503025707 | 53 | 181 | 3.0 | 7.0 | 0.00 | 0.00 | 0.00 | 83 | 1010.8 |
| 20260503025201 | 54 | 144 | 3.0 | 7.0 | 0.00 | 0.00 | 0.00 | 83 | 1010.8 |
| 20260503024653 | 54 | 171 | 2.0 | 7.0 | 0.00 | 0.00 | 0.00 | 82 | 1010.9 |
| 20260503024407 | 54 | 168 | 2.0 | 7.0 | 0.00 | 0.00 | 0.00 | 82 | 1010.9 |
| 20260503023901 | 54 | 244 | 3.0 | 7.0 | 0.00 | 0.00 | 0.00 | 82 | 1010.9 |
| 20260503023131 | 54 | 173 | 4.0 | 9.0 | 0.00 | 0.00 | 0.00 | 81 | 1010.9 |
| 20260503022630 | 55 | 173 | 5.0 | 10.0 | 0.00 | 0.00 | 0.00 | 81 | 1010.8 |
| 20260503022123 | 55 | 242 | 5.0 | 10.0 | 0.00 | 0.00 | 0.00 | 80 | 1010.9 |
| 20260503021618 | 55 | 164 | 4.0 | 10.0 | 0.00 | 0.00 | 0.00 | 79 | 1010.9 |
| 20260503021112 | 55 | 196 | 3.0 | 8.0 | 0.00 | 0.00 | 0.00 | 79 | 1011.0 |
| 20260503020831 | 56 | 171 | 2.0 | 7.0 | 0.00 | 0.00 | 0.00 | 78 | 1011.0 |
| 20260503020101 | 56 | 237 | 2.0 | 7.0 | 0.00 | 0.00 | 0.00 | 78 | 1010.9 |
| 20260503015550 | 56 | 231 | 3.0 | 9.0 | 0.00 | 0.00 | 0.00 | 78 | 1010.9 |
| 20260503015047 | 57 | 163 | 3.0 | 9.0 | 0.00 | 0.00 | 0.00 | 77 | 1010.9 |
| 20260503014540 | 57 | 157 | 4.0 | 11.0 | 0.00 | 0.00 | 0.00 | 76 | 1010.9 |
| 20260503014034 | 58 | 239 | 4.0 | 12.0 | 0.00 | 0.00 | 0.00 | 76 | 1010.8 |
| 20260503013522 | 58 | 255 | 4.0 | 12.0 | 0.00 | 0.00 | 0.00 | 75 | 1010.8 |
| 20260503013017 | 58 | 211 | 5.0 | 14.0 | 0.00 | 0.00 | 0.00 | 74 | 1010.8 |
| 20260503012739 | 58 | 144 | 6.0 | 14.0 | 0.00 | 0.00 | 0.00 | 73 | 1010.6 |
| 20260503012011 | 59 | 209 | 4.0 | 13.0 | 0.00 | 0.00 | 0.00 | 73 | 1010.8 |
| 20260503011504 | 59 | 249 | 4.0 | 10.0 | 0.00 | 0.00 | 0.00 | 72 | 1010.8 |
| 20260503010957 | 60 | 188 | 3.0 | 8.0 | 0.00 | 0.00 | 0.00 | 71 | 1010.8 |
| 20260503010452 | 60 | 189 | 2.0 | 7.0 | 0.00 | 0.00 | 0.00 | 70 | 1010.9 |
| 20260503010205 | 60 | 34 | 3.0 | 9.0 | 0.00 | 0.00 | 0.00 | 70 | 1010.9 |
| 20260503005440 | 61 | 181 | 3.0 | 9.0 | 0.00 | 0.00 | 0.00 | 69 | 1011.0 |
| 20260503004927 | 62 | 207 | 3.0 | 8.0 | 0.00 | 0.00 | 0.00 | 67 | 1011.1 |
| 20260503004423 | 62 | 296 | 3.0 | 8.0 | 0.00 | 0.00 | 0.00 | 67 | 1011.0 |
| 20260503004147 | 62 | 266 | 3.0 | 8.0 | 0.00 | 0.00 | 0.00 | 66 | 1011.0 |
| 20260503003415 | 63 | 198 | 4.0 | 9.0 | 0.00 | 0.00 | 0.00 | 65 | 1011.1 |
| 20260503002910 | 63 | 221 | 2.0 | 9.0 | 0.00 | 0.00 | 0.00 | 65 | 1011.1 |
| 20260503002404 | 64 | 175 | 2.0 | 10.0 | 0.00 | 0.00 | 0.00 | 65 | 1011.1 |
| 20260503001851 | 63 | 158 | 3.0 | 10.0 | 0.00 | 0.00 | 0.00 | 65 | 1011.2 |
| 20260503001606 | 64 | 92 | 2.0 | 9.0 | 0.00 | 0.00 | 0.00 | 65 | 1011.3 |
| 20260503000846 | 64 | 186 | 3.0 | 9.0 | 0.00 | 0.00 | 0.00 | 64 | 1011.1 |
| 20260503000339 | 64 | 229 | 2.0 | 7.0 | 0.00 | 0.00 | 0.00 | 62 | 1011.1 |
| 20260503000058 | 64 | 241 | 3.0 | 8.0 | 0.00 | 0.00 | 0.00 | 64 | 1011.1 |
| 20260502235322 | 64 | 145 | 4.0 | 11.0 | 0.00 | 0.00 | 0.00 | 64 | 1011.1 |
| 20260502234821 | 65 | 240 | 4.0 | 11.0 | 0.00 | 0.00 | 0.00 | 64 | 1011.1 |
| 20260502234315 | 65 | 171 | 4.0 | 8.0 | 0.00 | 0.00 | 0.00 | 63 | 1011.1 |
| 20260502233806 | 65 | 186 | 3.0 | 8.0 | 0.00 | 0.00 | 0.00 | 62 | 1011.1 |
| 20260502233303 | 65 | 234 | 3.0 | 9.0 | 0.00 | 0.00 | 0.00 | 62 | 1011.2 |
| 20260502232758 | 65 | 227 | 4.0 | 12.0 | 0.00 | 0.00 | 0.00 | 63 | 1011.2 |
| 20260502232251 | 64 | 211 | 5.0 | 12.0 | 0.00 | 0.00 | 0.00 | 64 | 1011.2 |
| 20260502231746 | 64 | 243 | 6.0 | 11.0 | 0.00 | 0.00 | 0.00 | 63 | 1011.2 |
| 20260502231725 | 65 | 217 | 6.0 | 11.0 | 0.00 | 0.00 | 0.00 | 63 | 1011.4 |
| 20260502230734 | 65 | 163 | 7.0 | 12.0 | 0.00 | 0.00 | 0.00 | 63 | 1011.5 |
| 20260502230445 | 65 | 196 | 7.0 | 13.0 | 0.00 | 0.00 | 0.00 | 63 | 1011.5 |
| 20260502225722 | 65 | 171 | 6.0 | 13.0 | 0.00 | 0.00 | 0.00 | 63 | 1011.6 |
| 20260502225216 | 65 | 179 | 6.0 | 12.0 | 0.00 | 0.00 | 0.00 | 63 | 1011.6 |
| 20260502224709 | 66 | 229 | 4.0 | 8.0 | 0.00 | 0.00 | 0.00 | 61 | 1011.7 |
| 20260502224203 | 67 | 244 | 4.0 | 9.0 | 0.00 | 0.00 | 0.00 | 61 | 1012.0 |
| 20260502223659 | 66 | 167 | 4.0 | 9.0 | 0.00 | 0.00 | 0.00 | 62 | 1012.0 |
| 20260502223151 | 66 | 214 | 4.0 | 12.0 | 0.00 | 0.00 | 0.00 | 62 | 1012.0 |
| 20260502222641 | 66 | 248 | 5.0 | 12.0 | 0.00 | 0.00 | 0.00 | 60 | 1012.2 |
| 20260502222139 | 67 | 167 | 4.0 | 10.0 | 0.00 | 0.00 | 0.00 | 61 | 1012.3 |
| 20260502221634 | 67 | 183 | 5.0 | 10.0 | 0.00 | 0.00 | 0.00 | 62 | 1012.3 |
| 20260502221123 | 66 | 210 | 5.0 | 10.0 | 0.00 | 0.00 | 0.00 | 63 | 1012.3 |
| 20260502220621 | 65 | 259 | 4.0 | 10.0 | 0.00 | 0.00 | 0.00 | 63 | 1012.4 |
| 20260502220116 | 65 | 200 | 5.0 | 15.0 | 0.00 | 0.00 | 0.00 | 64 | 1012.5 |
| 20260502215609 | 65 | 244 | 4.0 | 15.0 | 0.00 | 0.00 | 0.00 | 64 | 1012.5 |
| 20260502215104 | 65 | 230 | 5.0 | 11.0 | 0.00 | 0.00 | 0.00 | 65 | 1012.6 |
| 20260502214553 | 65 | 249 | 6.0 | 11.0 | 0.00 | 0.00 | 0.00 | 64 | 1012.8 |
| 20260502214051 | 65 | 229 | 5.0 | 11.0 | 0.00 | 0.00 | 0.00 | 65 | 1013.0 |
| 20260502213545 | 65 | 217 | 5.0 | 11.0 | 0.00 | 0.00 | 0.00 | 64 | 1013.0 |
| 20260502213307 | 65 | 162 | 5.0 | 11.0 | 0.00 | 0.00 | 0.00 | 65 | 1013.0 |
| 20260502212534 | 65 | 234 | 5.0 | 14.0 | 0.00 | 0.00 | 0.00 | 64 | 1013.0 |
| 20260502212023 | 65 | 154 | 6.0 | 14.0 | 0.00 | 0.00 | 0.00 | 65 | 1013.1 |
| 20260502211518 | 64 | 203 | 5.0 | 12.0 | 0.00 | 0.00 | 0.00 | 65 | 1013.1 |
| 20260502211012 | 65 | 250 | 4.0 | 10.0 | 0.00 | 0.00 | 0.00 | 65 | 1013.2 |
| 20260502210506 | 65 | 156 | 5.0 | 9.0 | 0.00 | 0.00 | 0.00 | 65 | 1013.2 |
| 20260502205959 | 64 | 166 | 4.0 | 9.0 | 0.00 | 0.00 | 0.00 | 66 | 1013.2 |
| 20260502205453 | 65 | 159 | 3.0 | 9.0 | 0.00 | 0.00 | 0.00 | 65 | 1013.2 |
| 20260502204944 | 65 | 262 | 4.0 | 9.0 | 0.00 | 0.00 | 0.00 | 66 | 1013.4 |
| 20260502204442 | 64 | 171 | 4.0 | 10.0 | 0.00 | 0.00 | 0.00 | 67 | 1013.5 |